owner,sensor,date,latitude,longitude,sea_surface_height_above_sea_level,qcFlag 
TCOON,ioos:station:TCOON:518:1,2016-06-01T00:18:00Z,29.5150,-94.5133,1.531,1111122 
TCOON,ioos:station:TCOON:518:1,2016-06-01T01:18:00Z,29.5150,-94.5133,1.524,1111122 
TCOON,ioos:station:TCOON:518:1,2016-06-01T02:18:00Z,29.5150,-94.5133,1.501,1111122 
TCOON,ioos:station:TCOON:518:1,2016-06-01T03:18:00Z,29.5150,-94.5133,1.468,1111122 
TCOON,ioos:station:TCOON:518:1,2016-06-01T04:18:00Z,29.5150,-94.5133,1.464,1111122 
TCOON,ioos:station:TCOON:518:1,2016-06-01T05:18:00Z,29.5150,-94.5133,1.44,1111122 
TCOON,ioos:station:TCOON:518:1,2016-06-01T06:24:00Z,29.5150,-94.5133,1.497,1111122 
TCOON,ioos:station:TCOON:518:1,2016-06-01T07:24:00Z,29.5150,-94.5133,1.483,1111122 
TCOON,ioos:station:TCOON:518:1,2016-06-01T08:42:00Z,29.5150,-94.5133,1.562,1111122 
TCOON,ioos:station:TCOON:518:1,2016-06-01T09:36:00Z,29.5150,-94.5133,1.68,1111122 
TCOON,ioos:station:TCOON:518:1,2016-06-01T10:48:00Z,29.5150,-94.5133,1.77,1111122 
TCOON,ioos:station:TCOON:518:1,2016-06-01T11:30:00Z,29.5150,-94.5133,1.792,1111122 
TCOON,ioos:station:TCOON:518:1,2016-06-01T12:24:00Z,29.5150,-94.5133,1.776,1111122 
TCOON,ioos:station:TCOON:518:1,2016-06-01T13:42:00Z,29.5150,-94.5133,1.703,1111122 
TCOON,ioos:station:TCOON:518:1,2016-06-01T14:42:00Z,29.5150,-94.5133,1.663,1111122 
TCOON,ioos:station:TCOON:518:1,2016-06-01T15:24:00Z,29.5150,-94.5133,1.656,1111122 
TCOON,ioos:station:TCOON:518:1,2016-06-01T16:36:00Z,29.5150,-94.5133,1.698,1111122 
TCOON,ioos:station:TCOON:518:1,2016-06-01T17:42:00Z,29.5150,-94.5133,1.62,1111122 
TCOON,ioos:station:TCOON:518:1,2016-06-01T18:24:00Z,29.5150,-94.5133,1.612,1111122 
TCOON,ioos:station:TCOON:518:1,2016-06-01T19:30:00Z,29.5150,-94.5133,1.64,1111122 
TCOON,ioos:station:TCOON:518:1,2016-06-01T20:24:00Z,29.5150,-94.5133,1.62,1111122 
TCOON,ioos:station:TCOON:518:1,2016-06-01T21:36:00Z,29.5150,-94.5133,1.644,1111122 
TCOON,ioos:station:TCOON:518:1,2016-06-01T22:36:00Z,29.5150,-94.5133,1.581,1111122 
TCOON,ioos:station:TCOON:518:1,2016-06-01T23:42:00Z,29.5150,-94.5133,1.603,1111122 
TCOON,ioos:station:TCOON:518:1,2016-06-02T00:30:00Z,29.5150,-94.5133,1.552,1111122 
TCOON,ioos:station:TCOON:518:1,2016-06-02T01:24:00Z,29.5150,-94.5133,1.48,1111122 
TCOON,ioos:station:TCOON:518:1,2016-06-02T02:24:00Z,29.5150,-94.5133,1.456,1111122 
TCOON,ioos:station:TCOON:518:1,2016-06-02T03:42:00Z,29.5150,-94.5133,1.416,1111122 
TCOON,ioos:station:TCOON:518:1,2016-06-02T04:36:00Z,29.5150,-94.5133,1.429,1111122 
TCOON,ioos:station:TCOON:518:1,2016-06-02T05:36:00Z,29.5150,-94.5133,1.364,1111122 
TCOON,ioos:station:TCOON:518:1,2016-06-02T06:24:00Z,29.5150,-94.5133,1.463,1111122 
TCOON,ioos:station:TCOON:518:1,2016-06-02T07:30:00Z,29.5150,-94.5133,1.608,1111122 
TCOON,ioos:station:TCOON:518:1,2016-06-02T08:42:00Z,29.5150,-94.5133,1.654,1111122 
TCOON,ioos:station:TCOON:518:1,2016-06-02T09:24:00Z,29.5150,-94.5133,1.689,1111122 
TCOON,ioos:station:TCOON:518:1,2016-06-02T10:30:00Z,29.5150,-94.5133,1.82,1111122 
TCOON,ioos:station:TCOON:518:1,2016-06-02T11:42:00Z,29.5150,-94.5133,1.847,1111122 
TCOON,ioos:station:TCOON:518:1,2016-06-02T12:24:00Z,29.5150,-94.5133,1.825,1111122 
TCOON,ioos:station:TCOON:518:1,2016-06-02T13:36:00Z,29.5150,-94.5133,1.802,1111122 
TCOON,ioos:station:TCOON:518:1,2016-06-02T14:30:00Z,29.5150,-94.5133,1.822,1111122 
TCOON,ioos:station:TCOON:518:1,2016-06-02T15:30:00Z,29.5150,-94.5133,1.925,1111122 
TCOON,ioos:station:TCOON:518:1,2016-06-02T16:36:00Z,29.5150,-94.5133,1.998,1111122 
TCOON,ioos:station:TCOON:518:1,2016-06-02T17:30:00Z,29.5150,-94.5133,1.906,1111122 
TCOON,ioos:station:TCOON:518:1,2016-06-02T18:48:00Z,29.5150,-94.5133,1.788,1111122 
TCOON,ioos:station:TCOON:518:1,2016-06-02T19:36:00Z,29.5150,-94.5133,1.748,1111122 
TCOON,ioos:station:TCOON:518:1,2016-06-02T20:24:00Z,29.5150,-94.5133,1.749,1111122 
TCOON,ioos:station:TCOON:518:1,2016-06-02T21:36:00Z,29.5150,-94.5133,1.635,1111122 
TCOON,ioos:station:TCOON:518:1,2016-06-02T22:24:00Z,29.5150,-94.5133,1.6,1111122 
TCOON,ioos:station:TCOON:518:1,2016-06-02T23:36:00Z,29.5150,-94.5133,1.565,1111122 
TCOON,ioos:station:TCOON:518:1,2016-06-03T00:30:00Z,29.5150,-94.5133,1.537,1111122 
TCOON,ioos:station:TCOON:518:1,2016-06-03T01:24:00Z,29.5150,-94.5133,1.489,1111122 
TCOON,ioos:station:TCOON:518:1,2016-06-03T02:36:00Z,29.5150,-94.5133,1.574,1111122 
TCOON,ioos:station:TCOON:518:1,2016-06-03T03:24:00Z,29.5150,-94.5133,1.551,1111122 
TCOON,ioos:station:TCOON:518:1,2016-06-03T04:42:00Z,29.5150,-94.5133,1.42,1111122 
TCOON,ioos:station:TCOON:518:1,2016-06-03T05:30:00Z,29.5150,-94.5133,1.409,1111122 
TCOON,ioos:station:TCOON:518:1,2016-06-03T06:42:00Z,29.5150,-94.5133,1.43,1111122 
TCOON,ioos:station:TCOON:518:1,2016-06-03T07:48:00Z,29.5150,-94.5133,1.515,1111122 
TCOON,ioos:station:TCOON:518:1,2016-06-03T08:24:00Z,29.5150,-94.5133,1.605,1111122 
TCOON,ioos:station:TCOON:518:1,2016-06-03T09:30:00Z,29.5150,-94.5133,1.736,1111122 
TCOON,ioos:station:TCOON:518:1,2016-06-03T10:42:00Z,29.5150,-94.5133,1.791,1111122 
TCOON,ioos:station:TCOON:518:1,2016-06-03T11:42:00Z,29.5150,-94.5133,1.852,1111122 
TCOON,ioos:station:TCOON:518:1,2016-06-03T12:30:00Z,29.5150,-94.5133,1.9,1111122 
TCOON,ioos:station:TCOON:518:1,2016-06-03T13:30:00Z,29.5150,-94.5133,1.988,1111122 
TCOON,ioos:station:TCOON:518:1,2016-06-03T14:36:00Z,29.5150,-94.5133,1.967,1111122 
TCOON,ioos:station:TCOON:518:1,2016-06-03T15:42:00Z,29.5150,-94.5133,1.813,1111122 
TCOON,ioos:station:TCOON:518:1,2016-06-03T16:36:00Z,29.5150,-94.5133,1.857,1111122 
TCOON,ioos:station:TCOON:518:1,2016-06-03T17:24:00Z,29.5150,-94.5133,1.909,1111122 
TCOON,ioos:station:TCOON:518:1,2016-06-03T18:18:00Z,29.5150,-94.5133,1.901,1111122 
TCOON,ioos:station:TCOON:518:1,2016-06-03T19:18:00Z,29.5150,-94.5133,1.852,1111122 
TCOON,ioos:station:TCOON:518:1,2016-06-03T20:18:00Z,29.5150,-94.5133,1.855,1111122 
TCOON,ioos:station:TCOON:518:1,2016-06-03T21:18:00Z,29.5150,-94.5133,1.89,1111122 
TCOON,ioos:station:TCOON:518:1,2016-06-03T22:18:00Z,29.5150,-94.5133,1.788,1111122 
TCOON,ioos:station:TCOON:518:1,2016-06-03T23:18:00Z,29.5150,-94.5133,1.738,1111122 
TCOON,ioos:station:TCOON:518:1,2016-06-04T00:18:00Z,29.5150,-94.5133,1.68,1111122 
TCOON,ioos:station:TCOON:518:1,2016-06-04T01:18:00Z,29.5150,-94.5133,1.607,1111122 
TCOON,ioos:station:TCOON:518:1,2016-06-04T02:18:00Z,29.5150,-94.5133,1.58,1111122 
TCOON,ioos:station:TCOON:518:1,2016-06-04T03:18:00Z,29.5150,-94.5133,1.52,1111122 
TCOON,ioos:station:TCOON:518:1,2016-06-04T04:18:00Z,29.5150,-94.5133,1.458,1111122 
TCOON,ioos:station:TCOON:518:1,2016-06-04T05:18:00Z,29.5150,-94.5133,1.428,1111122 
TCOON,ioos:station:TCOON:518:1,2016-06-04T06:18:00Z,29.5150,-94.5133,1.42,1111122 
TCOON,ioos:station:TCOON:518:1,2016-06-04T07:18:00Z,29.5150,-94.5133,1.424,1111122 
TCOON,ioos:station:TCOON:518:1,2016-06-04T08:18:00Z,29.5150,-94.5133,1.486,1111122 
TCOON,ioos:station:TCOON:518:1,2016-06-04T09:18:00Z,29.5150,-94.5133,1.583,1111122 
TCOON,ioos:station:TCOON:518:1,2016-06-04T10:18:00Z,29.5150,-94.5133,1.677,1111122 
TCOON,ioos:station:TCOON:518:1,2016-06-04T11:18:00Z,29.5150,-94.5133,1.85,1111122 
TCOON,ioos:station:TCOON:518:1,2016-06-04T12:18:00Z,29.5150,-94.5133,1.801,1111122 
TCOON,ioos:station:TCOON:518:1,2016-06-04T13:18:00Z,29.5150,-94.5133,1.878,1111122 
TCOON,ioos:station:TCOON:518:1,2016-06-04T14:18:00Z,29.5150,-94.5133,1.918,1111122 
TCOON,ioos:station:TCOON:518:1,2016-06-04T15:18:00Z,29.5150,-94.5133,1.883,1111122 
TCOON,ioos:station:TCOON:518:1,2016-06-04T16:18:00Z,29.5150,-94.5133,1.886,1111122 
TCOON,ioos:station:TCOON:518:1,2016-06-04T17:18:00Z,29.5150,-94.5133,1.856,1111122 
TCOON,ioos:station:TCOON:518:1,2016-06-04T18:18:00Z,29.5150,-94.5133,1.805,1111122 
TCOON,ioos:station:TCOON:518:1,2016-06-04T19:18:00Z,29.5150,-94.5133,1.774,1111122 
TCOON,ioos:station:TCOON:518:1,2016-06-04T20:18:00Z,29.5150,-94.5133,1.735,1111122 
TCOON,ioos:station:TCOON:518:1,2016-06-04T21:18:00Z,29.5150,-94.5133,1.72,1111122 
TCOON,ioos:station:TCOON:518:1,2016-06-04T22:18:00Z,29.5150,-94.5133,1.753,1111122 
TCOON,ioos:station:TCOON:518:1,2016-06-04T23:18:00Z,29.5150,-94.5133,1.702,1111122 
TCOON,ioos:station:TCOON:518:1,2016-06-05T00:18:00Z,29.5150,-94.5133,1.72,1111122 
TCOON,ioos:station:TCOON:518:1,2016-06-05T01:18:00Z,29.5150,-94.5133,1.675,1111122 
TCOON,ioos:station:TCOON:518:1,2016-06-05T02:18:00Z,29.5150,-94.5133,1.554,1111122 
TCOON,ioos:station:TCOON:518:1,2016-06-05T03:18:00Z,29.5150,-94.5133,1.504,1111122 
TCOON,ioos:station:TCOON:518:1,2016-06-05T04:18:00Z,29.5150,-94.5133,1.472,1111122 
TCOON,ioos:station:TCOON:518:1,2016-06-05T05:18:00Z,29.5150,-94.5133,1.42,1111122 
TCOON,ioos:station:TCOON:518:1,2016-06-05T06:24:00Z,29.5150,-94.5133,1.38,1111122 
TCOON,ioos:station:TCOON:518:1,2016-06-05T07:18:00Z,29.5150,-94.5133,1.382,1111122 
TCOON,ioos:station:TCOON:518:1,2016-06-05T08:18:00Z,29.5150,-94.5133,1.376,1111122 
TCOON,ioos:station:TCOON:518:1,2016-06-05T09:18:00Z,29.5150,-94.5133,1.424,1111122 
TCOON,ioos:station:TCOON:518:1,2016-06-05T10:18:00Z,29.5150,-94.5133,1.568,1111122 
TCOON,ioos:station:TCOON:518:1,2016-06-05T11:18:00Z,29.5150,-94.5133,1.682,1111122 
TCOON,ioos:station:TCOON:518:1,2016-06-05T12:18:00Z,29.5150,-94.5133,1.764,1111122 
TCOON,ioos:station:TCOON:518:1,2016-06-05T13:18:00Z,29.5150,-94.5133,1.804,1111122 
TCOON,ioos:station:TCOON:518:1,2016-06-05T14:18:00Z,29.5150,-94.5133,1.809,1111122 
TCOON,ioos:station:TCOON:518:1,2016-06-05T15:18:00Z,29.5150,-94.5133,1.825,1111122 
TCOON,ioos:station:TCOON:518:1,2016-06-05T16:18:00Z,29.5150,-94.5133,1.852,1111122 
TCOON,ioos:station:TCOON:518:1,2016-06-05T17:18:00Z,29.5150,-94.5133,1.839,1111122 
TCOON,ioos:station:TCOON:518:1,2016-06-05T18:18:00Z,29.5150,-94.5133,1.783,1111122 
TCOON,ioos:station:TCOON:518:1,2016-06-05T19:18:00Z,29.5150,-94.5133,1.753,1111122 
TCOON,ioos:station:TCOON:518:1,2016-06-05T20:18:00Z,29.5150,-94.5133,1.734,1111122 
TCOON,ioos:station:TCOON:518:1,2016-06-05T21:18:00Z,29.5150,-94.5133,1.733,1111122 
TCOON,ioos:station:TCOON:518:1,2016-06-05T22:18:00Z,29.5150,-94.5133,1.74,1111122 
TCOON,ioos:station:TCOON:518:1,2016-06-05T23:18:00Z,29.5150,-94.5133,1.725,1111122 
TCOON,ioos:station:TCOON:518:1,2016-06-06T00:18:00Z,29.5150,-94.5133,1.716,1111122 
TCOON,ioos:station:TCOON:518:1,2016-06-06T01:18:00Z,29.5150,-94.5133,1.656,1111122 
TCOON,ioos:station:TCOON:518:1,2016-06-06T02:18:00Z,29.5150,-94.5133,1.577,1111122 
TCOON,ioos:station:TCOON:518:1,2016-06-06T03:18:00Z,29.5150,-94.5133,1.507,1111122 
TCOON,ioos:station:TCOON:518:1,2016-06-06T04:18:00Z,29.5150,-94.5133,1.459,1111122 
TCOON,ioos:station:TCOON:518:1,2016-06-06T05:18:00Z,29.5150,-94.5133,1.407,1111122 
TCOON,ioos:station:TCOON:518:1,2016-06-06T06:18:00Z,29.5150,-94.5133,1.364,1111122 
TCOON,ioos:station:TCOON:518:1,2016-06-06T07:18:00Z,29.5150,-94.5133,1.32,1111122 
TCOON,ioos:station:TCOON:518:1,2016-06-06T08:18:00Z,29.5150,-94.5133,1.285,1111122 
TCOON,ioos:station:TCOON:518:1,2016-06-06T09:18:00Z,29.5150,-94.5133,1.385,1111122 
TCOON,ioos:station:TCOON:518:1,2016-06-06T10:18:00Z,29.5150,-94.5133,1.498,1111122 
TCOON,ioos:station:TCOON:518:1,2016-06-06T11:18:00Z,29.5150,-94.5133,1.637,1111122 
TCOON,ioos:station:TCOON:518:1,2016-06-06T12:18:00Z,29.5150,-94.5133,1.71,1111122 
TCOON,ioos:station:TCOON:518:1,2016-06-06T13:18:00Z,29.5150,-94.5133,1.765,1111122 
TCOON,ioos:station:TCOON:518:1,2016-06-06T14:18:00Z,29.5150,-94.5133,1.807,1111122 
TCOON,ioos:station:TCOON:518:1,2016-06-06T15:18:00Z,29.5150,-94.5133,1.833,1111122 
TCOON,ioos:station:TCOON:518:1,2016-06-06T16:18:00Z,29.5150,-94.5133,1.846,1111122 
TCOON,ioos:station:TCOON:518:1,2016-06-06T17:18:00Z,29.5150,-94.5133,1.862,1111122 
TCOON,ioos:station:TCOON:518:1,2016-06-06T18:18:00Z,29.5150,-94.5133,1.894,1111122 
TCOON,ioos:station:TCOON:518:1,2016-06-06T19:18:00Z,29.5150,-94.5133,1.878,1111122 
TCOON,ioos:station:TCOON:518:1,2016-06-06T21:06:00Z,29.5150,-94.5133,1.791,1111122 
TCOON,ioos:station:TCOON:518:1,2016-06-06T22:18:00Z,29.5150,-94.5133,1.766,1111122 
TCOON,ioos:station:TCOON:518:1,2016-06-06T23:24:00Z,29.5150,-94.5133,1.734,1111122 
TCOON,ioos:station:TCOON:518:1,2016-06-07T00:18:00Z,29.5150,-94.5133,1.71,1111122 
TCOON,ioos:station:TCOON:518:1,2016-06-07T01:18:00Z,29.5150,-94.5133,1.677,1111122 
TCOON,ioos:station:TCOON:518:1,2016-06-07T02:18:00Z,29.5150,-94.5133,1.609,1111122 
TCOON,ioos:station:TCOON:518:1,2016-06-07T03:18:00Z,29.5150,-94.5133,1.547,1111122 
TCOON,ioos:station:TCOON:518:1,2016-06-07T04:18:00Z,29.5150,-94.5133,1.458,1111122 
TCOON,ioos:station:TCOON:518:1,2016-06-07T05:18:00Z,29.5150,-94.5133,1.391,1111122 
TCOON,ioos:station:TCOON:518:1,2016-06-07T06:18:00Z,29.5150,-94.5133,1.348,1111122 
TCOON,ioos:station:TCOON:518:1,2016-06-07T07:18:00Z,29.5150,-94.5133,1.314,1111122 
TCOON,ioos:station:TCOON:518:1,2016-06-07T08:18:00Z,29.5150,-94.5133,1.321,1111122 
TCOON,ioos:station:TCOON:518:1,2016-06-07T09:18:00Z,29.5150,-94.5133,1.322,1111122 
TCOON,ioos:station:TCOON:518:1,2016-06-07T10:18:00Z,29.5150,-94.5133,1.344,1111122 
TCOON,ioos:station:TCOON:518:1,2016-06-07T11:18:00Z,29.5150,-94.5133,1.477,1111122 
TCOON,ioos:station:TCOON:518:1,2016-06-07T12:18:00Z,29.5150,-94.5133,1.598,1111122 
TCOON,ioos:station:TCOON:518:1,2016-06-07T13:18:00Z,29.5150,-94.5133,1.663,1111122 
TCOON,ioos:station:TCOON:518:1,2016-06-07T14:18:00Z,29.5150,-94.5133,1.702,1111122 
TCOON,ioos:station:TCOON:518:1,2016-06-07T15:18:00Z,29.5150,-94.5133,1.758,1111122 
TCOON,ioos:station:TCOON:518:1,2016-06-07T16:18:00Z,29.5150,-94.5133,1.76,1111122 
TCOON,ioos:station:TCOON:518:1,2016-06-07T17:18:00Z,29.5150,-94.5133,1.739,1111122 
TCOON,ioos:station:TCOON:518:1,2016-06-07T18:18:00Z,29.5150,-94.5133,1.75,1111122 
TCOON,ioos:station:TCOON:518:1,2016-06-07T19:18:00Z,29.5150,-94.5133,1.76,1111122 
TCOON,ioos:station:TCOON:518:1,2016-06-07T20:18:00Z,29.5150,-94.5133,1.737,1111122 
TCOON,ioos:station:TCOON:518:1,2016-06-07T21:24:00Z,29.5150,-94.5133,1.741,1111122 
TCOON,ioos:station:TCOON:518:1,2016-06-07T22:18:00Z,29.5150,-94.5133,1.698,1111122 
TCOON,ioos:station:TCOON:518:1,2016-06-07T23:18:00Z,29.5150,-94.5133,1.71,1111122 
TCOON,ioos:station:TCOON:518:1,2016-06-08T00:18:00Z,29.5150,-94.5133,1.691,1111122 
TCOON,ioos:station:TCOON:518:1,2016-06-08T01:18:00Z,29.5150,-94.5133,1.658,1111122 
TCOON,ioos:station:TCOON:518:1,2016-06-08T02:18:00Z,29.5150,-94.5133,1.633,1111122 
TCOON,ioos:station:TCOON:518:1,2016-06-08T03:18:00Z,29.5150,-94.5133,1.597,1111122 
TCOON,ioos:station:TCOON:518:1,2016-06-08T04:24:00Z,29.5150,-94.5133,1.529,1111122 
TCOON,ioos:station:TCOON:518:1,2016-06-08T05:18:00Z,29.5150,-94.5133,1.453,1111122 
TCOON,ioos:station:TCOON:518:1,2016-06-08T06:18:00Z,29.5150,-94.5133,1.392,1111122 
TCOON,ioos:station:TCOON:518:1,2016-06-08T07:18:00Z,29.5150,-94.5133,1.348,1111122 
TCOON,ioos:station:TCOON:518:1,2016-06-08T08:18:00Z,29.5150,-94.5133,1.343,1111122 
TCOON,ioos:station:TCOON:518:1,2016-06-08T09:18:00Z,29.5150,-94.5133,1.323,1111122 
TCOON,ioos:station:TCOON:518:1,2016-06-08T10:18:00Z,29.5150,-94.5133,1.345,1111122 
TCOON,ioos:station:TCOON:518:1,2016-06-08T11:18:00Z,29.5150,-94.5133,1.436,1111122 
TCOON,ioos:station:TCOON:518:1,2016-06-08T12:18:00Z,29.5150,-94.5133,1.531,1111122 
TCOON,ioos:station:TCOON:518:1,2016-06-08T13:18:00Z,29.5150,-94.5133,1.599,1111122 
TCOON,ioos:station:TCOON:518:1,2016-06-08T14:18:00Z,29.5150,-94.5133,1.653,1111122 
TCOON,ioos:station:TCOON:518:1,2016-06-08T15:36:00Z,29.5150,-94.5133,1.738,1111122 
TCOON,ioos:station:TCOON:518:1,2016-06-08T16:18:00Z,29.5150,-94.5133,1.754,1111122 
TCOON,ioos:station:TCOON:518:1,2016-06-08T17:18:00Z,29.5150,-94.5133,1.782,1111122 
TCOON,ioos:station:TCOON:518:1,2016-06-08T18:18:00Z,29.5150,-94.5133,1.767,1111122 
TCOON,ioos:station:TCOON:518:1,2016-06-08T19:18:00Z,29.5150,-94.5133,1.783,1111122 
TCOON,ioos:station:TCOON:518:1,2016-06-08T20:18:00Z,29.5150,-94.5133,1.78,1111122 
TCOON,ioos:station:TCOON:518:1,2016-06-08T21:18:00Z,29.5150,-94.5133,1.766,1111122 
TCOON,ioos:station:TCOON:518:1,2016-06-08T22:18:00Z,29.5150,-94.5133,1.761,1111122 
TCOON,ioos:station:TCOON:518:1,2016-06-08T23:18:00Z,29.5150,-94.5133,1.743,1111122 
TCOON,ioos:station:TCOON:518:1,2016-06-09T00:18:00Z,29.5150,-94.5133,1.734,1111122 
TCOON,ioos:station:TCOON:518:1,2016-06-09T01:18:00Z,29.5150,-94.5133,1.722,1111122 
TCOON,ioos:station:TCOON:518:1,2016-06-09T02:18:00Z,29.5150,-94.5133,1.698,1111122 
TCOON,ioos:station:TCOON:518:1,2016-06-09T03:18:00Z,29.5150,-94.5133,1.689,1111122 
TCOON,ioos:station:TCOON:518:1,2016-06-09T04:18:00Z,29.5150,-94.5133,1.653,1111122 
TCOON,ioos:station:TCOON:518:1,2016-06-09T05:18:00Z,29.5150,-94.5133,1.588,1111122 
TCOON,ioos:station:TCOON:518:1,2016-06-09T06:24:00Z,29.5150,-94.5133,1.52,1111122 
TCOON,ioos:station:TCOON:518:1,2016-06-09T07:18:00Z,29.5150,-94.5133,1.48,1111122 
TCOON,ioos:station:TCOON:518:1,2016-06-09T08:18:00Z,29.5150,-94.5133,1.42,1111122 
TCOON,ioos:station:TCOON:518:1,2016-06-09T09:18:00Z,29.5150,-94.5133,1.404,1111122 
TCOON,ioos:station:TCOON:518:1,2016-06-09T10:18:00Z,29.5150,-94.5133,1.425,1111122 
TCOON,ioos:station:TCOON:518:1,2016-06-09T11:18:00Z,29.5150,-94.5133,1.432,1111122 
TCOON,ioos:station:TCOON:518:1,2016-06-09T12:18:00Z,29.5150,-94.5133,1.473,1111122 
TCOON,ioos:station:TCOON:518:1,2016-06-09T13:18:00Z,29.5150,-94.5133,1.545,1111122 
TCOON,ioos:station:TCOON:518:1,2016-06-09T14:18:00Z,29.5150,-94.5133,1.619,1111122 
TCOON,ioos:station:TCOON:518:1,2016-06-09T15:18:00Z,29.5150,-94.5133,1.682,1111122 
TCOON,ioos:station:TCOON:518:1,2016-06-09T16:18:00Z,29.5150,-94.5133,1.718,1111122 
TCOON,ioos:station:TCOON:518:1,2016-06-09T17:18:00Z,29.5150,-94.5133,1.743,1111122 
TCOON,ioos:station:TCOON:518:1,2016-06-09T18:18:00Z,29.5150,-94.5133,1.743,1111122 
TCOON,ioos:station:TCOON:518:1,2016-06-09T19:18:00Z,29.5150,-94.5133,1.733,1111122 
TCOON,ioos:station:TCOON:518:1,2016-06-09T20:18:00Z,29.5150,-94.5133,1.745,1111122 
TCOON,ioos:station:TCOON:518:1,2016-06-09T21:18:00Z,29.5150,-94.5133,1.732,1111122 
TCOON,ioos:station:TCOON:518:1,2016-06-09T22:18:00Z,29.5150,-94.5133,1.74,1111122 
TCOON,ioos:station:TCOON:518:1,2016-06-09T23:18:00Z,29.5150,-94.5133,1.744,1111122 
TCOON,ioos:station:TCOON:518:1,2016-06-10T00:18:00Z,29.5150,-94.5133,1.744,1111122 
TCOON,ioos:station:TCOON:518:1,2016-06-10T01:18:00Z,29.5150,-94.5133,1.723,1111122 
TCOON,ioos:station:TCOON:518:1,2016-06-10T02:18:00Z,29.5150,-94.5133,1.688,1111122 
TCOON,ioos:station:TCOON:518:1,2016-06-10T03:18:00Z,29.5150,-94.5133,1.638,1111122 
TCOON,ioos:station:TCOON:518:1,2016-06-10T04:18:00Z,29.5150,-94.5133,1.612,1111122 
TCOON,ioos:station:TCOON:518:1,2016-06-10T05:18:00Z,29.5150,-94.5133,1.576,1111122 
TCOON,ioos:station:TCOON:518:1,2016-06-10T06:18:00Z,29.5150,-94.5133,1.544,1111122 
TCOON,ioos:station:TCOON:518:1,2016-06-10T07:18:00Z,29.5150,-94.5133,1.486,1111122 
TCOON,ioos:station:TCOON:518:1,2016-06-10T08:18:00Z,29.5150,-94.5133,1.453,1111122 
TCOON,ioos:station:TCOON:518:1,2016-06-10T09:18:00Z,29.5150,-94.5133,1.432,1111122 
TCOON,ioos:station:TCOON:518:1,2016-06-10T10:18:00Z,29.5150,-94.5133,1.408,1111122 
TCOON,ioos:station:TCOON:518:1,2016-06-10T11:18:00Z,29.5150,-94.5133,1.428,1111122 
TCOON,ioos:station:TCOON:518:1,2016-06-10T12:18:00Z,29.5150,-94.5133,1.472,1111122 
TCOON,ioos:station:TCOON:518:1,2016-06-10T13:18:00Z,29.5150,-94.5133,1.503,1111122 
TCOON,ioos:station:TCOON:518:1,2016-06-10T14:18:00Z,29.5150,-94.5133,1.554,1111122 
TCOON,ioos:station:TCOON:518:1,2016-06-10T15:18:00Z,29.5150,-94.5133,1.61,1111122 
TCOON,ioos:station:TCOON:518:1,2016-06-10T16:18:00Z,29.5150,-94.5133,1.669,1111122 
TCOON,ioos:station:TCOON:518:1,2016-06-10T17:18:00Z,29.5150,-94.5133,1.734,1111122 
TCOON,ioos:station:TCOON:518:1,2016-06-10T18:18:00Z,29.5150,-94.5133,1.765,1111122 
TCOON,ioos:station:TCOON:518:1,2016-06-10T19:18:00Z,29.5150,-94.5133,1.757,1111122 
TCOON,ioos:station:TCOON:518:1,2016-06-10T20:18:00Z,29.5150,-94.5133,1.728,1111122 
TCOON,ioos:station:TCOON:518:1,2016-06-10T21:18:00Z,29.5150,-94.5133,1.698,1111122 
TCOON,ioos:station:TCOON:518:1,2016-06-10T22:18:00Z,29.5150,-94.5133,1.684,1111122 
TCOON,ioos:station:TCOON:518:1,2016-06-10T23:18:00Z,29.5150,-94.5133,1.659,1111122 
TCOON,ioos:station:TCOON:518:1,2016-06-11T00:18:00Z,29.5150,-94.5133,1.592,1111122 
TCOON,ioos:station:TCOON:518:1,2016-06-11T01:18:00Z,29.5150,-94.5133,1.523,1111122 
TCOON,ioos:station:TCOON:518:1,2016-06-11T02:18:00Z,29.5150,-94.5133,1.505,1111122 
TCOON,ioos:station:TCOON:518:1,2016-06-11T03:18:00Z,29.5150,-94.5133,1.495,1111122 
TCOON,ioos:station:TCOON:518:1,2016-06-11T04:18:00Z,29.5150,-94.5133,1.492,1111122 
TCOON,ioos:station:TCOON:518:1,2016-06-11T05:18:00Z,29.5150,-94.5133,1.498,1111122 
TCOON,ioos:station:TCOON:518:1,2016-06-11T06:18:00Z,29.5150,-94.5133,1.481,1111122 
TCOON,ioos:station:TCOON:518:1,2016-06-11T07:18:00Z,29.5150,-94.5133,1.417,1111122 
TCOON,ioos:station:TCOON:518:1,2016-06-11T08:18:00Z,29.5150,-94.5133,1.394,1111122 
TCOON,ioos:station:TCOON:518:1,2016-06-11T09:18:00Z,29.5150,-94.5133,1.378,1111122 
TCOON,ioos:station:TCOON:518:1,2016-06-11T10:18:00Z,29.5150,-94.5133,1.361,1111122 
TCOON,ioos:station:TCOON:518:1,2016-06-11T11:24:00Z,29.5150,-94.5133,1.401,1111122 
TCOON,ioos:station:TCOON:518:1,2016-06-11T12:18:00Z,29.5150,-94.5133,1.415,1111122 
TCOON,ioos:station:TCOON:518:1,2016-06-11T13:18:00Z,29.5150,-94.5133,1.474,1111122 
TCOON,ioos:station:TCOON:518:1,2016-06-11T14:18:00Z,29.5150,-94.5133,1.521,1111122 
TCOON,ioos:station:TCOON:518:1,2016-06-11T15:18:00Z,29.5150,-94.5133,1.583,1111122 
TCOON,ioos:station:TCOON:518:1,2016-06-11T16:18:00Z,29.5150,-94.5133,1.611,1111122 
TCOON,ioos:station:TCOON:518:1,2016-06-11T17:18:00Z,29.5150,-94.5133,1.667,1111122 
TCOON,ioos:station:TCOON:518:1,2016-06-11T18:18:00Z,29.5150,-94.5133,1.713,1111122 
TCOON,ioos:station:TCOON:518:1,2016-06-11T19:18:00Z,29.5150,-94.5133,1.719,1111122 
TCOON,ioos:station:TCOON:518:1,2016-06-11T20:18:00Z,29.5150,-94.5133,1.699,1111122 
TCOON,ioos:station:TCOON:518:1,2016-06-11T21:18:00Z,29.5150,-94.5133,1.679,1111122 
TCOON,ioos:station:TCOON:518:1,2016-06-11T22:18:00Z,29.5150,-94.5133,1.642,1111122 
TCOON,ioos:station:TCOON:518:1,2016-06-11T23:18:00Z,29.5150,-94.5133,1.588,1111122 
TCOON,ioos:station:TCOON:518:1,2016-06-12T00:18:00Z,29.5150,-94.5133,1.52,1111122 
TCOON,ioos:station:TCOON:518:1,2016-06-12T01:18:00Z,29.5150,-94.5133,1.494,1111122 
TCOON,ioos:station:TCOON:518:1,2016-06-12T02:18:00Z,29.5150,-94.5133,1.461,1111122 
TCOON,ioos:station:TCOON:518:1,2016-06-12T03:18:00Z,29.5150,-94.5133,1.449,1111122 
TCOON,ioos:station:TCOON:518:1,2016-06-12T04:18:00Z,29.5150,-94.5133,1.481,1111122 
TCOON,ioos:station:TCOON:518:1,2016-06-12T05:18:00Z,29.5150,-94.5133,1.5,1111122 
TCOON,ioos:station:TCOON:518:1,2016-06-12T06:18:00Z,29.5150,-94.5133,1.501,1111122 
TCOON,ioos:station:TCOON:518:1,2016-06-12T07:18:00Z,29.5150,-94.5133,1.519,1111122 
TCOON,ioos:station:TCOON:518:1,2016-06-12T08:18:00Z,29.5150,-94.5133,1.512,1111122 
TCOON,ioos:station:TCOON:518:1,2016-06-12T09:18:00Z,29.5150,-94.5133,1.502,1111122 
TCOON,ioos:station:TCOON:518:1,2016-06-12T10:18:00Z,29.5150,-94.5133,1.485,1111122 
TCOON,ioos:station:TCOON:518:1,2016-06-12T11:18:00Z,29.5150,-94.5133,1.48,1111122 
TCOON,ioos:station:TCOON:518:1,2016-06-12T12:18:00Z,29.5150,-94.5133,1.492,1111122 
TCOON,ioos:station:TCOON:518:1,2016-06-12T13:18:00Z,29.5150,-94.5133,1.492,1111122 
TCOON,ioos:station:TCOON:518:1,2016-06-12T14:18:00Z,29.5150,-94.5133,1.471,1111122 
TCOON,ioos:station:TCOON:518:1,2016-06-12T15:18:00Z,29.5150,-94.5133,1.529,1111122 
TCOON,ioos:station:TCOON:518:1,2016-06-12T16:18:00Z,29.5150,-94.5133,1.599,1111122 
TCOON,ioos:station:TCOON:518:1,2016-06-12T17:12:00Z,29.5150,-94.5133,1.608,1111122 
TCOON,ioos:station:TCOON:518:1,2016-06-12T18:18:00Z,29.5150,-94.5133,1.621,1111122 
TCOON,ioos:station:TCOON:518:1,2016-06-12T19:18:00Z,29.5150,-94.5133,1.648,1111122 
TCOON,ioos:station:TCOON:518:1,2016-06-12T20:18:00Z,29.5150,-94.5133,1.667,1111122 
TCOON,ioos:station:TCOON:518:1,2016-06-12T21:18:00Z,29.5150,-94.5133,1.651,1111122 